EW5291 Weather Reports


Display with metric or nautical units.
time (UTC)temp
F
wind
direction
speed
MPH
gust
MPH
rain 1hr
in
rain 24hr
in
rain mn
in
humidity
%
barometer
mb
20260903064537 62 190 0.0 0.0 0.04 0.04 0.04 82 1015.4
20260903063036 62 190 0.0 0.0 0.04 0.04 0.04 82 1015.6
20260903061530 62 190 0.0 0.0 0.03 0.03 0.03 81 1016.0
20260903060026 63 190 0.0 0.0 0.00 0.00 0.00 81 1016.8
20260903054535 63 190 0.0 0.0 0.00 0.00 0.00 81 1017.2
20260903053022 63 190 0.0 0.0 0.00 0.00 0.00 80 1017.4
20260903051521 63 190 0.0 0.0 0.00 0.00 0.00 79 1017.6
20260903050019 63 190 0.0 0.0 0.00 0.00 0.00 79 1017.7
20260903044518 63 190 0.0 0.0 0.00 0.00 0.00 80 1017.6
20260903043022 63 190 0.0 0.0 0.00 0.00 0.00 80 1017.7
20260903041520 63 190 0.0 0.0 0.00 0.00 0.00 80 1017.8
20260903040013 63 190 0.0 0.0 0.00 0.00 0.00 79 1017.9
20260903034519 63 190 0.0 0.0 0.00 0.00 0.00 79 1017.6
20260903033012 64 190 0.0 0.0 0.00 0.00 0.00 79 1017.6
20260903031510 64 190 0.0 0.0 0.00 0.00 0.00 79 1017.7
20260903030504 64 0 0.0 0.0 0.00 0.00 0.00 79 1017.5
20260903030004 64 0 0.0 0.0 0.00 0.00 0.00 79 1017.6
20260903025503 64 0 0.0 0.0 0.00 0.00 0.00 79 1017.8
20260903025003 64 0 0.0 0.0 0.00 0.00 0.00 79 1018.1
20260903024603 64 190 0.0 0.0 0.00 0.00 0.00 79 1018.3
20260903024503 64 0 0.0 0.0 0.00 0.00 0.00 79 1018.1
20260903024003 65 0 0.0 0.0 0.00 0.00 0.00 80 1018.3
20260903023503 65 0 0.0 0.0 0.00 0.00 0.00 80 1018.5
20260903023103 64 190 0.0 0.0 0.00 0.00 0.00 79 1018.7
20260903023003 65 0 0.0 0.0 0.00 0.00 0.00 79 1018.6
20260903022503 65 0 0.0 0.0 0.00 0.00 0.00 79 1018.7
20260903022003 65 0 0.0 0.0 0.00 0.00 0.00 79 1018.6
20260903021602 64 190 0.0 0.0 0.00 0.00 0.00 78 1018.9
20260903021004 65 0 0.0 0.0 0.00 0.00 0.00 79 1018.9
20260903020504 65 0 0.0 0.0 0.00 0.00 0.00 79 1018.9
20260903020104 65 190 0.0 0.0 0.00 0.00 0.00 79 1019.3
20260903015504 65 0 0.0 0.0 0.00 0.00 0.00 79 1018.9
20260903015003 65 0 0.0 0.0 0.00 0.00 0.00 78 1019.1
20260903014626 65 190 0.0 0.0 0.00 0.00 0.00 78 1019.4
20260903014503 65 0 0.0 0.0 0.00 0.00 0.00 78 1019.2
20260903013504 65 0 0.0 0.0 0.00 0.00 0.00 78 1019.0
20260903013110 65 190 0.0 0.0 0.00 0.00 0.00 78 1019.1
20260903013004 65 0 0.0 0.0 0.00 0.00 0.00 78 1018.8
20260903012503 65 0 0.0 0.0 0.00 0.00 0.00 78 1018.7
20260903012004 66 0 0.0 0.0 0.00 0.00 0.00 77 1018.6
20260903011602 65 190 0.0 0.0 0.00 0.00 0.00 77 1018.8
20260903011504 66 0 0.0 0.0 0.00 0.00 0.00 77 1018.7
20260903011004 66 0 0.0 0.0 0.00 0.00 0.00 76 1018.4
20260903010503 66 0 0.0 0.0 0.00 0.00 0.00 76 1018.2
20260903010003 66 0 0.0 0.0 0.00 0.00 0.00 74 1018.2
20260903005503 66 0 0.0 0.0 0.00 0.00 0.00 75 1018.1
20260903005003 66 0 0.0 0.0 0.00 0.00 0.00 76 1018.3
20260903004603 65 190 0.0 0.0 0.00 0.00 0.00 76 1018.6
20260903004504 66 0 0.0 0.0 0.00 0.00 0.00 76 1018.4
20260903004003 66 0 0.0 0.0 0.00 0.00 0.00 76 1018.4
20260903003503 66 0 0.0 0.0 0.00 0.00 0.00 76 1018.4
20260903003119 66 190 0.0 0.0 0.00 0.00 0.00 75 1018.7
20260903003004 66 0 0.0 0.0 0.00 0.00 0.00 75 1018.6
20260903002504 66 0 0.0 0.0 0.00 0.00 0.00 75 1018.4
20260903002004 66 0 0.0 0.0 0.00 0.00 0.00 74 1018.6
20260903001602 66 190 0.0 0.0 0.00 0.00 0.00 72 1018.8
20260903001504 66 0 0.0 0.0 0.00 0.00 0.00 72 1018.5
20260903001004 66 0 0.0 0.0 0.00 0.00 0.00 73 1018.4
20260903000504 66 0 0.0 0.0 0.00 0.00 0.00 75 1018.4
20260903000109 66 190 0.0 0.0 0.00 0.00 0.00 75 1018.6
20260903000003 66 0 0.0 0.0 0.00 0.00 0.00 75 1018.5
20260902235503 67 0 0.0 0.0 0.00 0.00 0.00 75 1018.5
20260902235004 67 0 0.0 0.0 0.00 0.00 0.00 74 1018.6
20260902234607 66 190 0.0 0.0 0.00 0.00 0.00 74 1018.8
20260902234504 67 0 0.0 0.0 0.00 0.00 0.00 73 1018.6
20260902234004 67 0 0.0 0.0 0.00 0.00 0.00 75 1018.6
20260902233503 67 0 0.0 0.0 0.00 0.00 0.00 75 1018.7
20260902233105 67 190 0.0 0.0 0.00 0.00 0.00 75 1019.0
20260902233003 68 0 0.0 0.0 0.00 0.00 0.00 75 1018.8
20260902232503 68 0 0.0 0.0 0.00 0.00 0.00 74 1019.0
20260902231603 68 190 0.0 0.0 0.00 0.00 0.00 72 1019.6
20260902231503 69 0 0.0 0.0 0.00 0.00 0.00 70 1019.5
20260902231003 69 0 0.0 0.0 0.00 0.00 0.00 72 1019.5
20260902230119 68 190 0.0 0.0 0.00 0.00 0.00 70 1019.7
20260902230004 69 0 0.0 0.0 0.00 0.00 0.00 69 1019.5
20260902225503 69 0 0.0 0.0 0.00 0.00 0.00 72 1019.5
20260902225003 69 0 0.0 0.0 0.00 0.00 0.00 72 1019.6
20260902224615 68 190 0.0 0.0 0.00 0.00 0.00 75 1019.9
20260902223504 69 0 0.0 0.0 0.00 0.00 0.00 76 1019.8
20260902223114 68 190 0.0 0.0 0.00 0.00 0.00 75 1019.9
20260902223003 69 0 0.0 0.0 0.00 0.00 0.00 76 1019.7
20260902222003 69 0 0.0 0.0 0.00 0.00 0.00 76 1019.6
20260902221609 69 190 0.0 0.0 0.00 0.00 0.00 75 1019.8
20260902220503 69 0 0.0 0.0 0.00 0.00 0.00 75 1019.5
20260902220105 69 190 0.0 0.0 0.00 0.00 0.00 74 1019.7
20260902220004 70 0 0.0 0.0 0.00 0.00 0.00 74 1019.5
20260902215504 70 0 0.0 0.0 0.00 0.00 0.00 73 1019.7
20260902215003 70 0 0.0 0.0 0.00 0.00 0.00 73 1019.6
20260902214504 70 0 0.0 0.0 0.00 0.00 0.00 72 1019.5
20260902214004 70 0 0.0 0.0 0.00 0.00 0.00 72 1019.6
20260902213503 70 0 0.0 0.0 0.00 0.00 0.00 71 1019.5
20260902213102 70 190 0.0 0.0 0.00 0.00 0.00 71 1019.6
20260902213004 70 0 0.0 0.0 0.00 0.00 0.00 71 1019.4
20260902212503 71 0 0.0 0.0 0.00 0.00 0.00 71 1019.3
20260902212003 71 0 0.0 0.0 0.00 0.00 0.00 71 1019.2
20260902211602 71 190 0.0 0.0 0.00 0.00 0.00 70 1019.5
20260902211503 71 0 0.0 0.0 0.00 0.00 0.00 70 1019.3
20260902211003 72 0 0.0 0.0 0.00 0.00 0.00 67 1019.4
20260902210504 72 0 0.0 0.0 0.00 0.00 0.00 65 1019.3
20260902210103 72 190 0.0 0.0 0.00 0.00 0.00 64 1019.4
20260902210003 73 190 0.0 1.0 0.00 0.00 0.00 63 1019.2
20260902205503 73 190 0.0 1.0 0.00 0.00 0.00 63 1019.0
20260902205003 73 191 0.0 3.0 0.00 0.00 0.00 62 1018.9
20260902204609 73 190 0.0 3.0 0.00 0.00 0.00 62 1019.0
20260902204503 73 191 0.0 3.0 0.00 0.00 0.00 62 1018.7
20260902204003 74 191 0.0 2.0 0.00 0.00 0.00 67 1018.8
20260902203504 73 190 0.0 2.0 0.00 0.00 0.00 63 1018.8
20260902203102 73 190 0.0 2.0 0.00 0.00 0.00 61 1019.2
20260902203003 74 191 0.0 2.0 0.00 0.00 0.00 63 1019.1
20260902202004 72 0 0.0 0.0 0.00 0.00 0.00 70 1019.2
20260902201632 72 190 0.0 0.0 0.00 0.00 0.00 72 1019.4
20260902201003 72 0 0.0 0.0 0.00 0.00 0.00 73 1019.6
20260902200504 72 0 0.0 0.0 0.00 0.00 0.00 72 1019.7
20260902200003 72 0 0.0 0.0 0.00 0.00 0.00 73 1019.6
20260902195503 72 0 0.0 0.0 0.00 0.00 0.00 73 1019.6
20260902195004 72 0 0.0 0.0 0.00 0.00 0.00 73 1019.7
20260902194602 72 190 0.0 0.0 0.00 0.00 0.00 71 1019.9
20260902194503 72 0 0.0 0.0 0.00 0.00 0.00 71 1019.8
20260902194004 72 0 0.0 0.0 0.00 0.00 0.00 71 1019.9
20260902193104 72 190 0.0 0.0 0.00 0.00 0.00 70 1020.1
20260902193004 72 0 0.0 0.0 0.00 0.00 0.00 70 1019.9
20260902192503 72 0 0.0 0.0 0.00 0.00 0.00 70 1019.9
20260902191603 72 190 0.0 0.0 0.00 0.00 0.00 70 1020.1
20260902191503 72 0 0.0 0.0 0.00 0.00 0.00 69 1019.9
20260902191003 73 0 0.0 0.0 0.00 0.00 0.00 67 1019.8
20260902190503 73 0 0.0 0.0 0.00 0.00 0.00 67 1019.9
20260902190004 74 0 0.0 0.0 0.00 0.00 0.00 65 1019.9
20260902185504 74 0 0.0 0.0 0.00 0.00 0.00 64 1019.9
20260902185003 74 0 0.0 0.0 0.00 0.00 0.00 61 1019.9
20260902184601 74 190 0.0 0.0 0.00 0.04 0.00 61 1020.0
20260902184504 74 191 0.0 1.0 0.00 0.01 0.00 61 1019.9
20260902184003 74 191 0.0 1.0 0.00 0.01 0.00 64 1019.9
20260902183503 75 191 0.0 3.0 0.00 0.01 0.00 63 1019.9
20260902183103 74 190 0.0 3.0 0.00 0.04 0.00 61 1020.1
20260902183004 74 191 0.0 3.0 0.00 0.01 0.00 60 1019.9
20260902182503 74 0 0.0 0.0 0.00 0.02 0.00 60 1020.0
20260902181604 74 190 0.0 0.0 0.00 0.04 0.00 60 1020.3
20260902181503 75 0 0.0 0.0 0.00 0.03 0.00 61 1020.1
20260902180503 75 191 0.0 1.0 0.00 0.04 0.00 57 1020.3
20260902180109 75 190 0.0 2.0 0.00 0.04 0.00 57 1020.4
20260902175504 76 190 0.0 3.0 0.00 0.05 0.00 55 1020.2
20260902175003 75 190 0.0 3.0 0.00 0.05 0.00 56 1020.2
20260902174606 75 190 1.0 3.0 0.00 0.06 0.00 53 1020.5
20260902174003 76 190 0.0 4.0 0.00 0.05 0.00 58 1020.2
20260902173503 75 190 0.0 4.0 0.00 0.06 0.00 56 1020.2
20260902173103 74 190 0.0 3.0 0.00 0.06 0.00 57 1020.5
20260902173003 75 191 0.0 3.0 0.00 0.06 0.00 56 1020.2
20260902172503 74 191 0.0 4.0 0.00 0.06 0.00 59 1020.1
20260902172004 74 191 1.0 5.0 0.00 0.06 0.00 58 1020.1
20260902171602 73 190 0.0 5.0 0.00 0.06 0.00 57 1020.4
20260902171503 74 191 1.0 5.0 0.00 0.06 0.00 60 1020.1
20260902171004 74 191 1.0 4.0 0.00 0.06 0.00 57 1020.1
20260902170503 74 190 0.0 4.0 0.00 0.06 0.00 58 1020.2
20260902170105 73 190 0.0 0.0 0.00 0.06 0.00 60 1020.4
20260902170003 74 0 0.0 0.0 0.00 0.06 0.00 61 1020.2
20260902165504 74 0 0.0 0.0 0.00 0.06 0.00 62 1020.2
20260902165003 73 191 0.0 1.0 0.00 0.06 0.00 65 1020.3
20260902164605 73 190 0.0 1.0 0.00 0.54 0.00 63 1020.8
20260902164503 73 191 0.0 1.0 0.00 0.07 0.00 59 1020.6
20260902164003 74 191 0.0 3.0 0.00 0.07 0.00 60 1020.7
20260902163504 74 191 0.0 3.0 0.00 0.11 0.00 60 1020.7
20260902163103 74 190 0.0 0.0 0.00 0.54 0.00 57 1020.9
20260902163003 74 0 0.0 0.0 0.00 0.11 0.00 59 1020.7
20260902162004 73 191 0.0 1.0 0.00 0.32 0.00 66 1020.7
20260902161604 72 190 0.0 3.0 0.00 0.54 0.00 65 1021.0
20260902161504 72 191 0.0 3.0 0.00 0.49 0.00 64 1020.7
20260902161004 72 191 0.0 3.0 0.00 0.49 0.00 62 1020.8
20260902160504 72 0 0.0 0.0 0.00 0.54 0.00 67 1020.8
20260902160103 71 190 0.0 0.0 0.00 0.54 0.00 70 1021.3
20260902160003 71 0 0.0 0.0 0.00 0.54 0.00 66 1021.0
20260902155503 71 191 0.0 5.0 0.00 0.54 0.00 67 1021.1
20260902154606 70 190 0.0 5.0 0.00 0.55 0.00 66 1021.3
20260902154503 71 191 0.0 3.0 0.00 0.54 0.00 67 1020.9
20260902154003 70 191 0.0 2.0 0.00 0.54 0.00 71 1020.9
20260902153503 70 191 0.0 1.0 0.00 0.54 0.00 74 1021.0
20260902153108 69 190 0.0 1.0 0.00 0.55 0.00 71 1021.4
20260902152004 69 0 0.0 0.0 0.00 0.55 0.00 71 1021.3
20260902151603 68 190 0.0 1.0 0.00 0.55 0.00 71 1021.5
20260902151504 69 0 0.0 0.0 0.00 0.55 0.00 73 1021.3
20260902151003 69 0 0.0 0.0 0.00 0.55 0.00 71 1021.3
20260902145003 69 191 0.0 1.0 0.00 0.55 0.00 68 1021.2
20260902144603 68 190 0.0 1.0 0.00 0.57 0.00 72 1021.6
20260902144504 69 191 0.0 1.0 0.00 0.56 0.00 69 1021.3
20260902144004 69 190 0.0 2.0 0.00 0.56 0.00 71 1021.3
20260902143503 69 191 0.0 3.0 0.00 0.56 0.00 71 1021.4
20260902143102 68 190 0.0 3.0 0.00 0.57 0.00 72 1021.7
20260902143003 68 191 0.0 3.0 0.00 0.56 0.00 71 1021.4
20260902142504 68 191 0.0 3.0 0.00 0.57 0.00 73 1021.2
20260902142004 68 190 0.0 1.0 0.00 0.57 0.00 76 1021.3
20260902141604 67 190 0.0 1.0 0.00 0.57 0.00 77 1021.6
20260902141504 68 191 0.0 1.0 0.00 0.57 0.00 78 1021.3
20260902140503 67 191 0.0 1.0 0.00 0.58 0.00 77 1021.1
20260902140110 66 190 0.0 0.0 0.00 0.57 0.00 78 1021.4
20260902140003 67 190 0.0 1.0 0.00 0.58 0.00 77 1021.1
20260902135503 66 190 0.0 1.0 0.00 0.58 0.00 78 1021.1
20260902134603 65 190 0.0 0.0 0.00 0.80 0.00 80 1021.2
20260902134504 66 191 0.0 4.0 0.00 0.59 0.00 80 1020.8
20260902134004 65 191 0.0 4.0 0.00 0.59 0.00 80 1020.8
20260902133504 65 190 0.0 2.0 0.00 0.60 0.00 81 1020.7
20260902133107 65 190 0.0 1.0 0.00 0.80 0.00 81 1021.1
20260902132504 65 191 0.0 1.0 0.00 0.61 0.00 81 1020.7
20260902132003 65 0 0.0 0.0 0.00 0.61 0.00 82 1020.7
20260902131612 64 190 0.0 0.0 0.00 0.80 0.00 82 1021.0
20260902131503 64 0 0.0 0.0 0.00 0.64 0.00 82 1020.7
20260902131003 64 0 0.0 0.0 0.00 0.64 0.00 81 1020.8
20260902130503 64 0 0.0 0.0 0.00 0.64 0.00 82 1020.8
20260902130107 64 190 0.0 0.0 0.00 0.80 0.00 82 1021.1
20260902130004 64 0 0.0 0.0 0.00 0.64 0.00 82 1020.8
20260902125503 64 0 0.0 0.0 0.00 0.64 0.00 82 1020.7
20260902124510 64 190 0.0 0.0 0.00 1.54 0.00 82 1021.0
20260902123009 63 190 0.0 0.0 0.00 1.54 0.00 82 1021.0
20260902121505 63 190 0.0 0.0 0.00 1.54 0.00 82 1021.1
20260902120005 62 190 0.0 0.0 0.00 1.82 0.00 82 1021.1
20260902114503 62 190 0.0 0.0 0.00 1.82 0.00 82 1021.2
20260902113000 61 190 0.0 0.0 0.00 1.82 0.00 82 1021.3
20260902111600 61 190 0.0 0.0 0.00 1.82 0.00 82 1021.3
20260902110100 61 190 0.0 0.0 0.00 1.82 0.00 82 1021.2
20260902104609 61 190 0.0 0.0 0.00 1.86 0.00 82 1021.1
20260902103102 60 190 0.0 0.0 0.00 1.86 0.00 82 1020.9
20260902101554 60 190 0.0 0.0 0.00 1.86 0.00 82 1020.8
20260902100052 60 190 0.0 0.0 0.00 1.88 0.00 82 1020.7
20260902094550 60 190 0.0 0.0 0.00 1.88 0.00 82 1020.5
20260902093049 60 190 0.0 0.0 0.00 1.88 0.00 82 1020.4
20260902091553 60 190 0.0 0.0 0.00 1.88 0.00 82 1020.3
20260902090047 60 190 0.0 0.0 0.00 1.88 0.00 82 1020.1
20260902084546 60 190 0.0 0.0 0.00 1.88 0.00 82 1020.1
20260902083106 60 190 0.0 0.0 0.00 1.88 0.00 82 1019.9
20260902081546 60 190 0.0 0.0 0.00 1.88 0.00 82 1019.8
20260902080044 60 190 0.0 0.0 0.00 1.89 0.00 82 1019.9
20260902074544 60 190 0.0 0.0 0.00 1.89 0.00 82 1020.0
20260902073042 60 190 0.0 0.0 0.00 1.89 0.00 82 1020.0
20260902071542 60 190 0.0 0.0 0.00 1.89 0.00 82 1019.9
20260902070043 60 190 0.0 0.0 0.00 1.89 0.00 82 1020.1